Tracking 29892 objects as of 21-Nov-2024
HD Live streaming from Space Station
objects crossing your sky now

STARLINK-31918

Track STARLINK-31918 now!
10-day predictions
STARLINK-31918 is classified as:


NORAD ID: 60037
Int'l Code: 2024-111X
Perigee: 469.4 km
Apogee: 471.5 km
Inclination: 53.2 °
Period: 93.9 minutes
Semi major axis: 6841 km
RCS: Unknown
Launch date: June 8, 2024
Source: United States (US)
Launch site: AIR FORCE EASTERN TEST RANGE (AFETR)
Your satellite tracking list
Your tracking list is empty




NASA's NSSDC Master Catalog

Two Line Element Set (TLE):
1 60037U 24111X   24325.83496707  .00000471  00000-0  25223-4 0  9995
2 60037  53.1601 116.6705 0001536  62.9512 297.1647 15.34207864 26419
Source of the keplerian elements: AFSPC